FW6987 Weather Reports


time (UTC)temp
C
wind
direction
speed
KPH
gust
KPH
rain 1hr
cm
rain 24hr
cm
rain mn
cm
humidity
%
barometer
mb
20260504110114 3 0 0.0 1.6 0.00 0.00 0.00 78 1003.1
20260504081553 4 32 1.6 4.8 0.00 0.00 0.00 76 1002.3
20260504060104 5 0 0.0 0.0 0.00 0.00 0.00 68 1002.2
20260504044600 8 0 0.0 0.0 0.00 0.00 0.00 61 1002.3
20260504043053 8 0 0.0 0.0 0.00 0.00 0.00 59 1002.1
20260504041556 10 0 0.0 3.2 0.00 0.00 0.00 54 1002.1
20260504040052 10 0 0.0 6.4 0.00 0.00 0.00 49 1001.9
20260504034552 10 215 1.6 8.0 0.00 0.00 0.00 49 1001.9
20260504033101 9 209 1.6 6.4 0.00 0.00 0.00 51 1002.0
20260504031603 9 360 1.6 4.8 0.00 0.00 0.00 54 1002.0
20260504030055 10 277 1.6 3.2 0.00 0.00 0.00 51 1001.9
20260504024602 10 276 4.8 11.3 0.00 0.00 0.00 49 1001.9
20260504023054 10 277 3.2 6.4 0.00 0.00 0.00 50 1002.0
20260504021555 9 0 1.6 8.0 0.00 0.00 0.00 52 1001.9
20260504020052 8 0 0.0 0.0 0.00 0.00 0.00 52 1002.0
20260504014559 8 0 0.0 3.2 0.00 0.00 0.00 53 1001.9
20260504013104 9 0 0.0 4.8 0.00 0.00 0.00 53 1001.8
20260504011555 9 296 0.0 3.2 0.00 0.00 0.00 52 1001.9
20260504010057 9 0 1.6 3.2 0.00 0.00 0.00 52 1001.7
20260504004603 9 296 0.0 3.2 0.00 0.00 0.00 51 1001.6
20260504003054 10 0 0.0 0.0 0.00 0.00 0.00 50 1001.4
20260504001557 10 78 0.0 3.2 0.00 0.00 0.00 49 1001.0
20260504000053 11 327 0.0 3.2 0.00 0.00 0.00 46 1001.0
20260503234550 11 0 0.0 4.8 0.00 0.00 0.00 44 1000.7
20260503233050 12 144 0.0 6.4 0.00 0.00 0.00 43 1000.7
20260503231555 12 137 0.0 9.7 0.00 0.00 0.00 41 1000.6
20260503230053 12 88 0.0 0.0 0.00 0.00 0.00 38 1000.5
20260503224553 13 0 0.0 4.8 0.00 0.00 0.00 38 1000.5
20260503223058 13 141 1.6 9.7 0.00 0.00 0.00 36 1000.4
20260503221554 13 112 0.0 6.4 0.00 0.00 0.00 35 1000.2
20260503220059 13 119 3.2 9.7 0.00 0.00 0.00 32 1000.1
20260503214551 13 141 3.2 14.5 0.00 0.00 0.00 32 1000.0
20260503213054 13 125 3.2 11.3 0.00 0.00 0.00 29 999.8
20260503211604 13 112 3.2 11.3 0.00 0.00 0.00 30 999.5
20260503210050 13 160 3.2 12.9 0.00 0.00 0.00 31 999.4
20260503204554 13 139 4.8 11.3 0.00 0.00 0.00 31 999.6
20260503203052 13 178 3.2 14.5 0.00 0.00 0.00 32 999.8
20260503201551 13 137 6.4 19.3 0.00 0.00 0.00 33 999.6
20260503200054 13 151 4.8 17.7 0.00 0.00 0.00 32 999.7
20260503194550 13 113 4.8 16.1 0.00 0.00 0.00 34 1000.0
20260503193056 13 244 6.4 14.5 0.00 0.00 0.00 33 1000.2
20260503191550 12 63 3.2 12.9 0.00 0.00 0.00 33 1000.6
20260503190055 13 125 3.2 12.9 0.00 0.00 0.00 35 1000.5
20260503184603 12 175 8.0 16.1 0.00 0.00 0.00 36 1000.3
20260503183051 12 150 8.0 17.7 0.00 0.00 0.00 35 1000.6
20260503181556 12 129 8.0 14.5 0.00 0.00 0.00 37 1000.9
20260503180051 11 164 1.6 17.7 0.00 0.00 0.00 41 1001.0
20260503174607 10 130 8.0 24.1 0.00 0.00 0.00 38 1001.2
20260503173050 12 146 3.2 20.9 0.00 0.00 0.00 39 1001.3
20260503171549 11 127 6.4 12.9 0.00 0.00 0.00 42 1001.4